GW3504 Weather Reports


Display with metric or nautical units.
time (UTC)temp
F
wind
direction
speed
MPH
gust
MPH
rain 1hr
in
rain 24hr
in
rain mn
in
humidity
%
barometer
mb
20260508203035 62 0 0.0 5.0 0.00 0.01 0.01 82 1009.4
20260508202526 63 0 0.0 4.0 0.01 0.01 0.01 81 1009.5
20260508202023 63 0 0.0 4.0 0.01 0.01 0.01 80 1009.5
20260508201536 63 0 0.0 3.0 0.01 0.01 0.01 80 1009.6
20260508201027 63 0 0.0 3.0 0.01 0.01 0.01 80 1009.5
20260508200523 63 0 0.0 2.0 0.01 0.01 0.01 80 1009.4
20260508200050 63 0 0.0 2.0 0.01 0.01 0.01 80 1009.4
20260508195522 64 0 0.0 2.0 0.01 0.01 0.01 81 1009.5
20260508195022 64 0 0.0 5.0 0.01 0.01 0.01 80 1009.4
20260508194535 64 0 0.0 5.0 0.01 0.01 0.01 80 1009.4
20260508194020 64 0 0.0 6.0 0.01 0.01 0.01 80 1009.4
20260508193526 64 302 0.0 7.0 0.01 0.01 0.01 80 1009.5
20260508193037 64 270 0.0 7.0 0.01 0.01 0.01 80 1009.7
20260508192525 64 286 2.0 7.0 0.00 0.00 0.00 80 1009.5
20260508192024 64 0 0.0 0.0 0.00 0.00 0.00 79 1009.1
20260508191535 64 0 0.0 0.0 0.00 0.00 0.00 77 1009.0
20260508191021 64 0 0.0 0.0 0.00 0.00 0.00 76 1008.9
20260508190521 64 0 0.0 0.0 0.00 0.00 0.00 74 1008.9
20260508190043 64 0 0.0 0.0 0.00 0.00 0.00 74 1009.0
20260508185525 64 0 0.0 1.0 0.00 0.00 0.00 76 1009.1
20260508185021 65 0 0.0 2.0 0.00 0.00 0.00 78 1009.2
20260508184541 64 0 0.0 2.0 0.00 0.00 0.00 79 1009.2
20260508184020 64 0 0.0 0.0 0.00 0.00 0.00 81 1009.2
20260508183520 64 0 0.0 0.0 0.00 0.00 0.00 80 1009.3
20260508183037 63 0 0.0 0.0 0.00 0.00 0.00 80 1009.2
20260508182526 63 0 0.0 0.0 0.00 0.00 0.00 79 1009.1
20260508182023 63 0 0.0 1.0 0.00 0.00 0.00 78 1009.2
20260508181537 63 0 0.0 2.0 0.00 0.00 0.00 77 1009.2
20260508181023 63 0 0.0 2.0 0.00 0.00 0.00 77 1009.6
20260508180525 63 171 0.0 0.0 0.00 0.00 0.00 79 1009.8
20260508180035 63 0 0.0 0.0 0.00 0.00 0.00 81 1009.3
20260508175520 63 0 0.0 0.0 0.00 0.00 0.00 79 1009.4
20260508175024 63 0 0.0 0.0 0.00 0.00 0.00 80 1009.5
20260508174539 63 0 0.0 0.0 0.00 0.00 0.00 78 1009.2
20260508174022 63 0 0.0 0.0 0.00 0.00 0.00 75 1009.3
20260508173521 64 0 0.0 2.0 0.00 0.00 0.00 71 1009.6
20260508173038 64 0 0.0 3.0 0.00 0.00 0.00 70 1009.6
20260508172524 64 149 0.0 6.0 0.00 0.00 0.00 69 1010.0
20260508172023 64 171 0.0 6.0 0.00 0.00 0.00 68 1010.2
20260508171535 65 220 0.0 5.0 0.00 0.00 0.00 68 1009.9
20260508171022 65 0 0.0 2.0 0.00 0.00 0.00 67 1010.0
20260508170523 65 0 0.0 2.0 0.00 0.00 0.00 67 1010.1
20260508170036 65 219 0.0 2.0 0.00 0.00 0.00 67 1010.2
20260508165524 64 0 0.0 2.0 0.00 0.00 0.00 69 1010.2
20260508165023 64 144 0.0 2.0 0.00 0.00 0.00 70 1010.3
20260508164538 64 0 0.0 0.0 0.00 0.00 0.00 70 1010.3
20260508164026 63 0 0.0 5.0 0.00 0.00 0.00 69 1010.6
20260508163523 63 0 0.0 5.0 0.00 0.00 0.00 71 1010.2
20260508163034 62 315 0.0 4.0 0.00 0.00 0.00 71 1009.8
20260508162525 62 0 1.0 5.0 0.00 0.00 0.00 71 1009.6
20260508162024 63 0 0.0 5.0 0.00 0.00 0.00 70 1009.8
20260508161539 63 0 0.0 0.0 0.00 0.00 0.00 69 1009.6
20260508161025 63 0 0.0 0.0 0.00 0.00 0.00 68 1010.2
20260508160524 63 0 0.0 0.0 0.00 0.00 0.00 69 1010.5
20260508160036 63 0 0.0 2.0 0.00 0.00 0.00 69 1010.6
20260508155527 63 0 0.0 2.0 0.00 0.00 0.00 68 1010.6
20260508155025 63 156 0.0 3.0 0.00 0.00 0.00 68 1010.6
20260508154536 63 0 0.0 3.0 0.00 0.00 0.00 68 1010.5
20260508154025 63 0 0.0 3.0 0.00 0.00 0.00 69 1010.6
20260508153526 62 189 0.0 2.0 0.00 0.00 0.00 68 1010.4
20260508153037 62 0 0.0 1.0 0.00 0.00 0.00 69 1010.4
20260508152524 62 0 0.0 3.0 0.00 0.00 0.00 70 1010.4
20260508152024 62 0 0.0 3.0 0.00 0.00 0.00 69 1010.2
20260508151534 62 0 0.0 1.0 0.00 0.00 0.00 70 1010.2
20260508151026 61 0 0.0 1.0 0.00 0.00 0.00 70 1010.3
20260508150527 61 0 0.0 2.0 0.00 0.00 0.00 69 1010.3
20260508150042 61 0 0.0 2.0 0.00 0.00 0.00 69 1010.3
20260508145529 61 0 0.0 2.0 0.00 0.00 0.00 70 1010.3
20260508145024 61 0 0.0 3.0 0.00 0.00 0.00 70 1010.3
20260508144538 61 0 0.0 3.0 0.00 0.00 0.00 70 1010.4
20260508144027 61 0 0.0 1.0 0.00 0.00 0.00 71 1010.4
20260508143526 60 0 0.0 2.0 0.00 0.00 0.00 70 1010.6
20260508143036 60 0 0.0 2.0 0.00 0.00 0.00 70 1010.6
20260508142524 60 329 0.0 6.0 0.00 0.00 0.00 70 1010.6
20260508142026 60 0 0.0 7.0 0.00 0.00 0.00 69 1010.4
20260508141537 60 148 0.0 7.0 0.00 0.00 0.00 69 1010.4
20260508141029 60 295 0.0 8.0 0.00 0.00 0.00 69 1010.2
20260508140525 60 202 1.0 8.0 0.00 0.00 0.00 69 1010.1
20260508140035 60 172 1.0 8.0 0.00 0.00 0.00 69 1010.0
20260508135522 59 173 0.0 7.0 0.00 0.00 0.00 69 1010.2
20260508135028 59 235 1.0 7.0 0.00 0.00 0.00 69 1010.1
20260508134538 59 0 0.0 7.0 0.00 0.00 0.00 69 1010.1
20260508134025 59 240 2.0 8.0 0.00 0.00 0.00 70 1010.1
20260508133528 59 193 1.0 9.0 0.00 0.00 0.00 70 1010.1
20260508133038 59 0 2.0 9.0 0.00 0.00 0.00 70 1010.2
20260508132522 58 0 0.0 5.0 0.00 0.00 0.00 70 1010.3
20260508132024 58 0 2.0 5.0 0.00 0.00 0.00 70 1010.3
20260508131535 58 173 0.0 7.0 0.00 0.00 0.00 71 1010.4
20260508131028 57 194 1.0 7.0 0.00 0.00 0.00 71 1010.3
20260508130522 57 172 1.0 5.0 0.00 0.00 0.00 71 1010.3
20260508130056 57 190 0.0 5.0 0.00 0.00 0.00 71 1010.3
20260508125523 57 0 0.0 9.0 0.00 0.00 0.00 71 1010.3
20260508125023 57 0 1.0 10.0 0.00 0.00 0.00 71 1010.2
20260508124535 57 180 4.0 10.0 0.00 0.00 0.00 71 1010.3
20260508124022 57 0 0.0 3.0 0.00 0.00 0.00 71 1010.2
20260508123524 57 136 0.0 3.0 0.00 0.00 0.00 71 1010.2
20260508123035 57 0 0.0 0.0 0.00 0.00 0.00 71 1010.2
20260508122523 57 0 0.0 0.0 0.00 0.00 0.00 70 1010.2
20260508122022 57 0 0.0 4.0 0.00 0.00 0.00 69 1010.2
20260508121538 57 0 0.0 5.0 0.00 0.00 0.00 69 1010.3
20260508121023 57 0 1.0 6.0 0.00 0.00 0.00 69 1009.9
20260508120523 57 182 1.0 9.0 0.00 0.00 0.00 69 1009.8
20260508120038 57 0 1.0 9.0 0.00 0.00 0.00 70 1009.8
20260508115522 57 0 1.0 8.0 0.00 0.00 0.00 70 1009.7
20260508115023 57 182 1.0 8.0 0.00 0.00 0.00 70 1009.8
20260508114535 57 176 0.0 8.0 0.00 0.00 0.00 70 1009.7
20260508114022 57 176 1.0 8.0 0.00 0.00 0.00 70 1009.5
20260508113523 57 171 2.0 8.0 0.00 0.00 0.00 70 1009.4
20260508113041 57 202 1.0 7.0 0.00 0.00 0.00 70 1009.5
20260508112523 57 206 1.0 8.0 0.00 0.00 0.00 71 1009.5
20260508112023 57 0 1.0 8.0 0.00 0.00 0.00 71 1009.8
20260508111534 57 165 1.0 9.0 0.00 0.00 0.00 70 1009.6
20260508111023 57 0 0.0 9.0 0.00 0.00 0.00 70 1009.5
20260508110522 57 170 2.0 9.0 0.00 0.00 0.00 70 1009.4
20260508110037 57 216 0.0 8.0 0.00 0.00 0.00 70 1009.6
20260508105526 57 190 0.0 5.0 0.00 0.00 0.00 69 1009.7
20260508105025 57 308 0.0 7.0 0.00 0.00 0.00 68 1009.8
20260508104603 57 0 1.0 7.0 0.00 0.00 0.00 68 1009.8
20260508104021 57 0 1.0 7.0 0.00 0.00 0.00 67 1009.6
20260508103521 57 177 0.0 11.0 0.00 0.00 0.00 67 1009.6
20260508103044 57 0 0.0 11.0 0.00 0.00 0.00 67 1009.9
20260508102525 57 191 1.0 9.0 0.00 0.00 0.00 67 1009.8
20260508102024 57 259 1.0 8.0 0.00 0.00 0.00 67 1009.6
20260508101542 57 0 1.0 10.0 0.00 0.00 0.00 67 1009.6
20260508101025 57 167 1.0 10.0 0.00 0.00 0.00 67 1009.4
20260508100524 57 150 1.0 10.0 0.00 0.00 0.00 66 1009.6
20260508100034 58 0 2.0 12.0 0.00 0.00 0.00 66 1009.5
20260508095524 58 153 1.0 12.0 0.00 0.00 0.00 65 1009.3
20260508095023 58 174 3.0 10.0 0.00 0.00 0.00 65 1009.5
20260508094543 58 211 1.0 8.0 0.00 0.00 0.00 65 1009.5
20260508094025 58 146 2.0 8.0 0.00 0.00 0.00 65 1009.4
20260508093525 58 0 2.0 13.0 0.00 0.00 0.00 65 1009.3
20260508093038 58 173 1.0 13.0 0.00 0.00 0.00 64 1009.4
20260508092525 58 177 1.0 8.0 0.00 0.00 0.00 65 1009.3
20260508092024 58 210 1.0 8.0 0.00 0.00 0.00 64 1009.4
20260508091536 58 144 1.0 8.0 0.00 0.00 0.00 64 1009.3
20260508091027 58 172 2.0 8.0 0.00 0.00 0.00 63 1009.3
20260508090525 58 195 2.0 10.0 0.00 0.00 0.00 63 1009.3
20260508090037 59 0 1.0 10.0 0.00 0.00 0.00 63 1009.3
20260508085525 58 186 2.0 9.0 0.00 0.00 0.00 63 1009.4
20260508085025 58 254 2.0 10.0 0.00 0.00 0.00 63 1009.4
20260508084541 59 0 2.0 10.0 0.00 0.00 0.00 63 1009.5
20260508084025 59 190 1.0 8.0 0.00 0.00 0.00 63 1009.4
20260508083528 59 235 2.0 9.0 0.00 0.00 0.00 63 1009.4
20260508083056 59 195 2.0 9.0 0.00 0.00 0.00 63 1009.4
20260508082524 59 0 2.0 8.0 0.00 0.00 0.00 63 1009.5
20260508082024 59 176 1.0 9.0 0.00 0.00 0.00 62 1009.5
20260508081552 59 159 3.0 10.0 0.00 0.00 0.00 62 1009.5
20260508081024 59 207 2.0 10.0 0.00 0.00 0.00 62 1009.6
20260508080526 59 211 1.0 10.0 0.00 0.00 0.00 62 1009.6
20260508080036 59 162 2.0 10.0 0.00 0.00 0.00 62 1009.7
20260508075524 59 208 2.0 8.0 0.00 0.00 0.00 62 1009.8
20260508075028 60 201 1.0 8.0 0.00 0.00 0.00 62 1009.9
20260508074536 60 220 2.0 9.0 0.00 0.00 0.00 61 1010.0
20260508074026 60 0 1.0 9.0 0.00 0.00 0.00 61 1010.1
20260508073525 60 0 2.0 9.0 0.00 0.00 0.00 61 1010.1
20260508073034 60 0 0.0 5.0 0.00 0.00 0.00 62 1010.2
20260508072523 60 182 0.0 6.0 0.00 0.00 0.00 61 1010.4
20260508072124 60 0 1.0 6.0 0.00 0.00 0.00 62 1010.3
20260508071538 60 0 1.0 6.0 0.00 0.00 0.00 62 1010.4
20260508071023 59 156 2.0 10.0 0.00 0.00 0.00 62 1010.4
20260508070527 59 229 0.0 10.0 0.00 0.00 0.00 63 1010.4
20260508070113 59 0 2.0 10.0 0.00 0.00 0.00 63 1010.5
20260508065523 59 153 1.0 8.0 0.00 0.00 0.00 63 1010.4
20260508065022 59 0 1.0 11.0 0.00 0.00 0.00 64 1010.4
20260508064538 59 168 2.0 11.0 0.00 0.00 0.00 64 1010.3
20260508064025 59 0 2.0 10.0 0.00 0.00 0.00 65 1010.4
20260508063528 59 203 2.0 7.0 0.00 0.00 0.00 64 1010.6
20260508063037 59 0 0.0 6.0 0.00 0.00 0.00 64 1010.7
20260508062522 59 0 1.0 7.0 0.00 0.00 0.00 64 1010.9
20260508062023 59 179 2.0 7.0 0.00 0.00 0.00 63 1011.0
20260508061537 58 0 1.0 10.0 0.00 0.00 0.00 63 1011.1
20260508061022 58 181 0.0 10.0 0.00 0.00 0.00 63 1011.2
20260508060524 58 159 2.0 7.0 0.00 0.00 0.00 63 1011.1
20260508060044 58 185 2.0 7.0 0.00 0.00 0.00 63 1011.2
20260508055522 58 167 0.0 6.0 0.00 0.00 0.00 63 1011.2
20260508055024 58 234 0.0 6.0 0.00 0.00 0.00 64 1011.2
20260508054543 58 185 0.0 6.0 0.00 0.00 0.00 63 1011.2
20260508054023 58 167 0.0 7.0 0.00 0.00 0.00 63 1011.1
20260508053521 58 157 0.0 7.0 0.00 0.00 0.00 63 1011.2
20260508053038 59 189 0.0 7.0 0.00 0.00 0.00 63 1011.2
20260508052524 59 157 0.0 6.0 0.00 0.00 0.00 62 1011.1
20260508052023 59 212 1.0 6.0 0.00 0.00 0.00 61 1011.2
20260508051535 59 197 1.0 7.0 0.00 0.00 0.00 61 1011.2
20260508051023 59 0 1.0 7.0 0.00 0.00 0.00 61 1011.3
20260508050527 60 0 1.0 9.0 0.00 0.00 0.00 61 1011.3
20260508050036 60 172 2.0 9.0 0.00 0.00 0.00 61 1011.2
20260508045523 60 0 1.0 9.0 0.00 0.00 0.00 61 1011.3
20260508045023 60 180 1.0 9.0 0.00 0.00 0.00 60 1011.3
20260508044535 60 192 2.0 11.0 0.00 0.00 0.00 60 1011.3
20260508044023 60 203 4.0 11.0 0.00 0.00 0.00 60 1011.3
20260508043522 60 0 3.0 9.0 0.00 0.00 0.00 59 1011.2
20260508043053 60 188 3.0 8.0 0.00 0.00 0.00 59 1011.3
20260508042524 61 157 3.0 10.0 0.00 0.00 0.00 59 1011.4
20260508042022 61 163 2.0 10.0 0.00 0.00 0.00 59 1011.3
20260508041537 61 163 2.0 10.0 0.00 0.00 0.00 59 1011.4
20260508041025 61 186 3.0 10.0 0.00 0.00 0.00 60 1011.4
20260508040523 61 152 1.0 8.0 0.00 0.00 0.00 59 1011.4
20260508040036 61 146 1.0 9.0 0.00 0.00 0.00 60 1011.4
20260508035523 61 180 1.0 9.0 0.00 0.00 0.00 60 1011.3
20260508035025 61 198 1.0 9.0 0.00 0.00 0.00 60 1011.3
20260508034535 61 222 3.0 9.0 0.00 0.00 0.00 60 1011.4
20260508034023 61 181 2.0 8.0 0.00 0.00 0.00 59 1011.4
20260508033525 61 188 3.0 9.0 0.00 0.00 0.00 59 1011.3
20260508033038 61 160 2.0 9.0 0.00 0.00 0.00 59 1011.2
20260508032523 62 165 1.0 9.0 0.00 0.00 0.00 59 1011.2
20260508032023 62 148 2.0 10.0 0.00 0.00 0.00 58 1011.2
20260508031536 62 165 3.0 10.0 0.00 0.00 0.00 58 1011.2
20260508031024 62 0 2.0 10.0 0.00 0.00 0.00 57 1011.1
20260508030522 62 229 2.0 10.0 0.00 0.00 0.00 57 1011.2
20260508030048 63 154 1.0 11.0 0.00 0.00 0.00 57 1011.0
20260508025522 63 183 4.0 11.0 0.00 0.00 0.00 56 1010.9
20260508025023 63 194 4.0 10.0 0.00 0.00 0.00 56 1010.9
20260508024536 63 163 3.0 11.0 0.00 0.00 0.00 56 1010.8
20260508024025 63 0 2.0 11.0 0.00 0.00 0.00 56 1010.8
20260508023524 63 182 1.0 10.0 0.00 0.00 0.00 55 1010.8
20260508023037 63 186 3.0 10.0 0.00 0.00 0.00 55 1010.7
20260508022523 64 165 3.0 8.0 0.00 0.00 0.00 54 1010.8
20260508022021 64 170 2.0 10.0 0.00 0.00 0.00 54 1010.6
20260508021541 64 173 2.0 10.0 0.00 0.00 0.00 53 1010.6
20260508021024 64 162 1.0 8.0 0.00 0.00 0.00 53 1010.6
20260508020526 64 184 2.0 8.0 0.00 0.00 0.00 53 1010.6
20260508020036 64 173 2.0 8.0 0.00 0.00 0.00 52 1010.4
20260508015524 65 188 1.0 8.0 0.00 0.00 0.00 51 1010.4
20260508015024 65 155 2.0 8.0 0.00 0.00 0.00 51 1010.3
20260508014535 65 0 1.0 7.0 0.00 0.00 0.00 50 1010.3
20260508014024 65 169 1.0 6.0 0.00 0.00 0.00 49 1010.4
20260508013523 65 179 1.0 6.0 0.00 0.00 0.00 48 1010.2
20260508013034 65 175 2.0 7.0 0.00 0.00 0.00 49 1010.2
20260508012523 65 0 2.0 7.0 0.00 0.00 0.00 48 1010.3
20260508012024 66 182 1.0 6.0 0.00 0.00 0.00 48 1010.3
20260508011536 66 146 1.0 7.0 0.00 0.00 0.00 47 1010.2
20260508011023 66 183 2.0 7.0 0.00 0.00 0.00 47 1010.1
20260508010523 66 177 2.0 6.0 0.00 0.00 0.00 47 1010.1
20260508010042 67 160 1.0 7.0 0.00 0.00 0.00 46 1010.1
20260508005526 67 0 2.0 8.0 0.00 0.00 0.00 46 1010.1
20260508005023 67 150 1.0 8.0 0.00 0.00 0.00 46 1010.2
20260508004538 67 158 2.0 7.0 0.00 0.00 0.00 45 1010.1
20260508004023 67 152 2.0 7.0 0.00 0.00 0.00 45 1010.2
20260508003522 68 157 1.0 7.0 0.00 0.00 0.00 45 1010.1
20260508003037 68 0 1.0 7.0 0.00 0.00 0.00 45 1010.2
20260508002524 68 163 1.0 7.0 0.00 0.00 0.00 44 1010.2
20260508002023 68 162 1.0 8.0 0.00 0.00 0.00 44 1010.1
20260508001536 68 179 1.0 8.0 0.00 0.00 0.00 43 1010.1
20260508001023 68 153 1.0 9.0 0.00 0.00 0.00 43 1010.2
20260508000526 69 0 2.0 11.0 0.00 0.00 0.00 43 1010.2
20260508000034 69 136 3.0 11.0 0.00 0.00 0.00 43 1010.2
20260507235523 69 180 3.0 11.0 0.00 0.00 0.00 42 1010.2
20260507235023 69 190 4.0 11.0 0.00 0.00 0.00 42 1010.3
20260507234541 70 215 2.0 15.0 0.00 0.00 0.00 41 1010.3
20260507234024 70 190 3.0 15.0 0.00 0.00 0.00 42 1010.4
20260507233523 70 170 2.0 10.0 0.00 0.00 0.00 41 1010.4
20260507233036 70 273 2.0 10.0 0.00 0.00 0.00 42 1010.4
20260507232524 70 169 2.0 10.0 0.00 0.00 0.00 41 1010.5
20260507232024 71 142 3.0 9.0 0.00 0.00 0.00 41 1010.6
20260507231535 71 135 2.0 10.0 0.00 0.00 0.00 42 1010.6
20260507231023 71 140 2.0 10.0 0.00 0.00 0.00 41 1010.7
20260507230522 71 273 1.0 11.0 0.00 0.00 0.00 42 1010.7
20260507230036 71 248 2.0 12.0 0.00 0.00 0.00 43 1010.8
20260507225524 71 194 3.0 12.0 0.00 0.00 0.00 42 1010.8
20260507225022 70 292 2.0 9.0 0.00 0.00 0.00 43 1010.9
20260507224535 70 0 3.0 9.0 0.00 0.00 0.00 42 1010.9
20260507224023 71 0 2.0 8.0 0.00 0.00 0.00 42 1011.0
20260507223523 71 155 2.0 8.0 0.00 0.00 0.00 42 1011.0
20260507223034 71 0 2.0 8.0 0.00 0.00 0.00 42 1011.1
20260507222523 71 163 2.0 7.0 0.00 0.00 0.00 44 1011.1
20260507222022 70 180 2.0 8.0 0.00 0.00 0.00 43 1011.1
20260507221535 70 118 1.0 9.0 0.00 0.00 0.00 44 1011.2
20260507221022 70 148 3.0 11.0 0.00 0.00 0.00 43 1011.2
20260507220524 70 0 2.0 11.0 0.00 0.00 0.00 43 1011.2
20260507220037 70 341 3.0 9.0 0.00 0.00 0.00 43 1011.2
20260507215524 70 0 2.0 12.0 0.00 0.00 0.00 42 1011.3
20260507215027 70 0 4.0 12.0 0.00 0.00 0.00 43 1011.3
20260507214534 70 210 3.0 13.0 0.00 0.00 0.00 43 1011.3
20260507214023 70 121 3.0 13.0 0.00 0.00 0.00 44 1011.4
20260507213523 70 151 2.0 10.0 0.00 0.00 0.00 44 1011.4
20260507213038 70 260 3.0 12.0 0.00 0.00 0.00 41 1011.4
20260507212523 70 155 3.0 12.0 0.00 0.00 0.00 42 1011.6
20260507212021 70 283 1.0 16.0 0.00 0.00 0.00 46 1011.7
20260507211533 70 192 5.0 16.0 0.00 0.00 0.00 44 1011.7
20260507211021 70 178 4.0 12.0 0.00 0.00 0.00 45 1011.8
20260507210523 70 257 3.0 18.0 0.00 0.00 0.00 43 1011.8
20260507210036 70 162 2.0 18.0 0.00 0.00 0.00 43 1012.0
20260507205524 70 138 3.0 12.0 0.00 0.00 0.00 44 1012.1
20260507205024 70 148 3.0 13.0 0.00 0.00 0.00 46 1012.2
20260507204538 70 350 5.0 13.0 0.00 0.00 0.00 43 1012.2
20260507204023 70 352 3.0 12.0 0.00 0.00 0.00 44 1012.4
20260507203525 70 0 2.0 12.0 0.00 0.00 0.00 44 1012.4